Date,TemperatureHighF,TemperatureAvgF,TemperatureLowF,DewpointHighF,DewpointAvgF,DewpointLowF,HumidityHigh,HumidityAvg,HumidityLow,PressureMaxIn,PressureMinIn,WindSpeedMaxMPH,WindSpeedAvgMPH,GustSpeedMaxMPH,PrecipitationSumIn
2013-1-1,36.3,20.8,9.0,16.3,8.0,-4.7,69,58,37,30.34,30.23,12,2,12,0.00
2013-1-2,34.2,14.8,2.1,4.5,-3.8,-14.1,62,46,19,30.39,30.30,12,3,12,0.00
2013-1-3,32.4,23.4,14.4,19.4,10.4,0.3,69,58,46,30.43,30.29,14,4,14,0.00
2013-1-4,39.4,22.5,10.6,17.7,10.4,1.1,69,60,32,30.44,30.33,16,7,16,0.00
2013-1-5,39.4,27.3,15.6,28.5,19.2,6.9,85,72,48,30.43,30.16,16,3,16,0.00
2013-1-6,36.1,29.0,17.2,28.2,18.6,9.1,80,65,47,30.49,30.09,14,4,14,0.00
2013-1-7,44.8,25.6,13.6,20.8,13.7,3.3,79,63,19,30.53,30.30,18,5,18,0.00
2013-1-8,45.3,31.7,23.0,27.8,21.4,15.9,76,66,47,30.37,30.23,12,3,12,0.00
2013-1-9,55.6,39.9,22.1,31.6,20.6,-0.6,76,50,19,30.65,30.22,17,5,17,0.00
2013-1-10,43.2,32.9,20.1,41.1,23.5,11.1,93,69,50,30.66,30.09,12,2,12,0.08
2013-1-11,54.0,50.3,43.0,52.1,46.9,41.3,96,88,74,30.09,29.87,18,6,18,0.33
2013-1-12,58.1,47.4,32.7,46.4,38.7,28.1,85,72,53,30.13,29.95,16,5,16,0.08
2013-1-13,34.2,26.9,13.5,31.5,22.0,3.2,90,82,63,30.38,30.01,13,1,13,0.06
2013-1-14,37.6,14.8,7.7,14.8,2.3,-2.8,67,58,31,30.62,30.42,0,0,0,0.06
2013-1-15,36.5,19.2,7.0,20.3,7.4,-3.3,73,60,41,30.59,30.31,0,0,0,0.00
2013-1-16,40.5,33.9,26.2,21.9,17.4,7.3,66,52,27,30.31,30.05,18,7,18,0.00
2013-1-17,40.5,26.7,12.9,24.2,6.8,-13.1,77,46,19,30.56,30.21,14,2,14,0.00
2013-1-18,45.0,28.4,11.3,22.7,13.8,-2.3,72,55,34,30.58,30.15,25,7,25,0.00
2013-1-19,52.3,42.0,33.3,32.4,26.3,-3.4,65,54,19,30.16,29.93,21,10,21,0.00
2013-1-20,33.3,18.4,11.7,7.9,-12.7,-19.6,38,25,19,30.45,30.05,20,4,20,0.00
2013-1-21,16.0,8.8,-0.6,-1.0,-16.7,-31.7,57,32,19,30.43,30.29,24,5,24,0.00
2013-1-22,20.3,3.4,-6.2,-12.3,-22.9,-30.3,43,29,19,30.55,30.42,13,2,13,0.00
2013-1-23,19.6,13.9,6.4,2.1,-8.5,-20.9,52,36,19,30.50,30.27,15,4,15,0.00
2013-1-24,34.5,15.2,5.9,5.6,-4.3,-19.0,63,45,19,30.77,30.42,8,0,8,0.02
2013-1-25,27.1,20.9,15.1,13.3,5.9,-1.2,62,52,44,30.53,30.15,13,2,13,0.00
2013-1-26,51.3,24.6,14.4,14.7,2.5,-14.0,56,41,19,30.54,30.30,10,0,11,0.00
2013-1-27,34.9,25.9,19.0,31.2,16.9,5.5,87,69,55,30.55,30.13,12,2,12,0.04
2013-1-28,51.3,45.2,34.9,50.2,43.6,31.4,96,94,87,30.13,30.02,18,3,18,0.00
2013-1-29,59.4,56.3,45.0,56.8,53.6,43.7,96,91,81,30.05,29.58,25,8,25,0.75
2013-1-30,53.2,37.7,20.8,50.8,33.1,9.9,96,84,61,29.80,29.38,24,4,24,0.32
2013-1-31,20.8,13.9,3.0,10.2,-1.3,-12.7,65,50,39,30.31,29.79,22,8,22,0.00
2013-2-1,19.6,7.8,-2.0,3.8,-11.9,-20.2,60,41,19,30.54,30.30,16,6,16,0.00
2013-2-2,27.9,18.1,9.3,16.4,7.8,-4.2,73,64,53,30.36,30.15,12,2,12,0.00
2013-2-3,34.7,16.4,5.9,8.3,-0.5,-10.2,63,48,19,30.23,30.12,12,2,12,0.00
2013-2-4,33.8,24.0,18.7,18.5,13.9,8.3,75,65,51,30.21,30.00,7,0,7,0.02
2013-2-5,32.9,25.2,10.6,24.2,15.9,1.5,77,68,57,30.23,29.97,14,2,14,0.02
2013-2-6,48.9,32.1,17.6,21.2,15.1,6.0,67,52,19,30.41,30.23,11,2,11,0.00
2013-2-7,53.1,36.0,28.0,33.1,26.7,19.5,84,70,43,30.30,29.99,8,0,9,0.22
2013-2-8,33.4,28.5,26.4,29.5,21.9,18.1,87,76,68,30.53,30.04,22,5,22,0.00
2013-2-9,46.0,32.1,25.7,24.1,19.4,16.2,72,60,39,30.54,30.27,12,2,12,0.00
2013-2-10,50.7,39.9,30.0,46.2,32.5,18.1,91,75,56,30.27,29.73,21,6,21,0.20
2013-2-11,49.2,34.3,28.6,37.8,19.6,14.3,65,54,50,30.21,29.74,33,11,33,0.00
2013-2-12,32.5,25.7,15.6,17.7,13.2,6.3,68,59,53,30.28,30.10,12,3,12,0.00
2013-2-13,54.7,31.8,15.4,28.7,19.3,5.8,82,62,31,30.11,29.90,13,2,13,0.00
2013-2-14,42.4,35.6,29.3,29.9,23.0,11.9,76,61,42,30.13,29.86,22,5,22,0.00
2013-2-15,44.1,29.3,19.6,21.4,8.9,-15.0,71,46,19,30.33,30.13,14,2,14,0.00
2013-2-16,23.4,16.4,9.9,7.7,-7.9,-17.3,55,35,19,30.33,30.26,12,3,12,0.00
2013-2-17,39.9,20.1,5.4,4.1,-6.6,-14.9,48,32,19,30.38,30.22,13,2,13,0.00
2013-2-18,58.1,39.9,22.6,42.1,25.3,3.6,86,57,39,30.22,29.63,26,9,26,0.26
2013-2-19,32.9,16.5,10.6,28.0,2.1,-6.8,82,53,42,30.31,29.73,25,7,26,0.18
2013-2-20,37.6,17.3,4.8,9.0,-3.4,-14.6,57,42,19,30.50,30.30,13,1,13,0.00
2013-2-21,29.7,24.6,21.4,15.5,11.5,7.7,72,57,51,30.51,30.15,15,3,15,0.00
2013-2-22,34.2,27.4,21.0,29.2,19.6,13.7,82,72,57,30.16,30.00,15,4,15,0.00
2013-2-23,32.2,25.6,20.5,16.1,11.6,8.4,66,56,38,30.14,30.09,13,4,13,0.00
2013-2-24,55.2,28.1,14.7,19.2,10.4,-0.4,70,52,19,30.31,30.13,8,1,8,0.10
2013-2-25,55.0,33.3,18.1,25.2,18.0,8.9,75,56,26,30.34,30.11,9,1,9,0.02
2013-2-26,34.0,32.5,31.5,28.4,24.4,17.7,85,73,52,30.11,29.65,14,2,14,0.32
2013-2-27,36.9,32.9,32.2,31.8,28.9,27.6,88,85,78,29.83,29.66,8,0,8,0.26
2013-2-28,34.3,32.0,28.2,30.6,27.4,21.1,90,83,71,30.18,29.83,19,3,19,0.28
2013-3-1,44.1,30.9,26.2,27.3,20.0,14.7,83,65,40,30.30,30.16,10,1,11,0.02
2013-3-2,32.4,26.3,23.2,18.4,13.2,7.5,64,57,50,30.31,30.27,12,2,12,0.00
2013-3-3,52.7,25.4,10.6,12.9,3.1,-13.5,65,43,19,30.30,30.23,10,1,10,0.04
2013-3-4,38.5,26.7,9.5,23.1,11.5,-3.4,74,54,32,30.30,30.16,12,1,12,0.00
2013-3-5,33.4,30.7,27.0,25.8,23.5,20.1,81,75,65,30.16,29.92,12,2,12,0.00
2013-3-6,36.9,31.4,27.5,25.9,22.8,20.3,80,70,56,30.44,30.08,13,2,13,0.04
2013-3-7,54.3,33.5,19.2,25.2,17.1,4.1,74,55,19,30.58,30.43,7,0,7,0.20
2013-3-8,57.4,32.2,15.8,23.0,13.9,3.5,76,51,19,30.66,30.48,8,0,8,0.00
2013-3-9,47.7,36.8,25.3,30.2,23.4,12.9,70,59,41,30.48,30.04,10,2,10,0.00
2013-3-10,61.9,47.5,37.0,45.7,37.1,27.6,84,68,48,30.05,29.82,10,1,11,0.42
2013-3-11,50.7,40.8,32.0,47.3,35.9,25.3,89,83,74,29.98,29.75,20,5,20,0.04
2013-3-12,43.3,32.1,26.1,26.0,20.3,13.1,77,62,37,30.17,29.97,20,7,20,0.00
2013-3-13,47.7,28.9,20.3,15.0,5.5,-13.5,66,40,19,30.48,30.17,14,2,14,0.00
2013-3-14,43.3,29.9,18.5,26.0,13.4,-0.4,80,53,19,30.48,30.25,12,2,12,0.00
2013-3-15,52.3,37.7,26.2,36.5,29.3,20.9,83,73,45,30.25,29.88,7,0,7,0.02
2013-3-16,39.4,33.4,28.6,34.3,26.8,17.4,88,77,62,30.27,29.82,13,2,13,0.06
2013-3-17,43.7,32.1,28.0,22.0,15.9,11.4,64,52,31,30.35,30.16,10,2,11,0.00
2013-3-18,34.7,30.2,22.1,28.9,21.7,4.9,81,71,46,30.16,29.78,29,4,29,0.06
2013-3-19,41.2,26.3,17.1,7.4,2.5,-6.6,53,38,19,30.24,29.98,27,9,27,0.00
2013-3-20,33.4,21.6,15.4,5.6,-5.4,-16.5,55,31,19,30.24,30.18,17,4,17,0.00
2013-3-21,49.8,23.9,8.8,11.2,-2.3,-12.6,55,34,19,30.21,30.15,12,2,12,0.00
2013-3-22,55.8,29.5,13.8,14.9,5.7,-9.3,65,41,19,30.23,30.15,12,1,12,0.00
2013-3-23,56.1,33.8,20.8,22.1,14.4,-1.6,70,49,19,30.29,30.16,9,0,9,0.00
2013-3-24,38.7,31.7,24.6,23.4,18.9,14.9,78,60,42,30.17,29.77,16,2,16,0.00
2013-3-25,43.9,33.6,27.3,24.6,22.1,20.4,78,63,43,30.20,29.81,17,3,17,0.16
2013-3-26,47.1,36.3,29.7,25.1,19.4,3.3,79,53,19,30.39,30.19,12,2,12,0.04
2013-3-27,50.7,36.0,24.8,25.2,14.3,2.1,71,45,19,30.47,30.38,10,1,10,0.00
2013-3-28,63.5,38.8,22.3,20.3,14.1,1.8,61,41,19,30.50,30.41,12,1,12,0.00
2013-3-29,70.2,42.6,23.7,27.1,17.4,2.9,65,41,19,30.48,30.36,8,0,8,0.00
2013-3-30,62.8,44.8,24.4,36.1,25.2,10.0,64,48,29,30.39,30.03,13,3,13,0.00
2013-3-31,65.8,49.8,37.2,44.4,34.0,21.1,96,59,22,30.03,29.87,26,4,26,0.00
2013-4-1,53.6,36.0,20.5,23.6,12.6,-8.6,56,40,19,30.32,30.02,16,2,17,0.00
2013-4-2,54.1,32.6,19.0,14.2,4.9,-11.3,54,34,19,30.45,30.31,17,2,17,0.00
2013-4-3,58.1,33.7,16.3,24.8,10.2,-7.0,65,42,19,30.60,30.45,10,0,10,0.00
2013-4-4,69.8,42.9,21.6,25.3,14.8,0.0,67,37,19,30.49,30.13,12,2,12,0.00
2013-4-5,60.3,42.9,32.2,32.4,23.2,3.8,84,50,19,30.35,30.14,12,2,12,0.00
2013-4-6,74.1,53.4,30.9,38.7,28.6,20.5,68,42,19,30.32,29.82,23,7,23,0.00
2013-4-7,69.1,53.4,38.8,45.8,38.0,29.4,79,59,27,30.12,29.82,22,4,22,0.00
2013-4-8,79.5,56.0,43.2,55.3,43.0,33.5,96,65,31,30.15,29.86,22,4,22,0.22
2013-4-9,83.5,56.1,41.2,57.0,46.0,38.3,96,72,35,30.16,29.97,16,3,16,0.00
2013-4-10,55.4,43.0,40.1,49.3,40.7,36.4,96,92,71,30.11,29.93,12,2,12,0.02
2013-4-11,46.6,45.8,43.9,45.5,44.7,42.8,96,96,96,30.01,29.74,10,6,10,0.06
2013-4-12,46.6,39.5,36.0,45.5,33.1,27.8,96,78,66,30.04,29.77,17,7,17,0.81
2013-4-13,53.1,39.3,33.4,32.8,27.6,22.1,87,65,35,30.16,30.04,17,5,17,0.00
2013-4-14,79.3,54.2,37.4,46.1,38.2,30.5,80,58,29,30.17,29.90,16,3,17,0.00
2013-4-15,71.8,57.5,45.3,55.5,49.0,40.9,96,75,50,30.13,29.91,17,5,17,0.78
2013-4-16,61.2,48.0,41.9,44.4,38.2,32.8,96,71,39,30.41,30.11,10,0,10,0.36
2013-4-17,55.9,48.4,42.4,49.1,41.8,33.3,96,78,62,30.41,29.98,13,2,13,0.89
2013-4-18,69.4,58.2,44.2,65.6,56.0,38.8,96,92,78,29.99,29.65,21,6,21,0.95
2013-4-19,44.2,37.4,32.9,38.3,28.0,25.2,82,69,59,30.09,29.72,29,10,29,0.00
2013-4-20,58.6,39.0,29.1,28.2,17.8,1.8,79,47,19,30.59,30.09,13,2,13,0.00
2013-4-21,64.0,42.9,25.2,27.4,20.4,14.1,67,44,19,30.69,30.51,17,2,17,0.00
2013-4-22,77.7,54.0,34.5,35.9,30.6,24.5,80,46,19,30.51,30.23,13,1,13,0.00
2013-4-23,67.6,52.9,36.9,51.5,42.7,33.7,96,70,46,30.24,30.03,15,3,15,0.08
2013-4-24,61.2,42.2,35.4,35.7,30.1,19.8,96,67,23,30.32,30.06,10,2,13,0.02
2013-4-25,61.9,44.3,31.6,34.8,27.4,20.1,78,55,22,30.50,30.25,12,2,13,0.00
2013-4-26,73.9,51.3,31.3,41.2,34.3,24.9,81,56,28,30.54,30.43,13,3,14,0.00
2013-4-27,80.1,55.0,38.3,50.1,38.9,28.3,96,63,19,30.47,30.17,9,1,12,0.00
2013-4-28,77.4,58.7,47.8,54.5,49.6,44.8,92,74,37,30.17,29.99,5,0,6,0.04
2013-4-29,80.2,61.9,46.4,54.5,48.6,44.1,96,67,32,30.11,30.00,10,2,12,0.00
2013-4-30,92.1,71.1,56.8,56.6,52.5,48.2,78,56,24,30.15,30.02,13,4,20,0.00
2013-5-1,93.6,73.5,56.7,56.7,52.0,44.9,91,53,21,30.31,30.15,10,1,12,0.00
2013-5-2,64.0,52.1,39.9,53.0,42.0,36.7,89,70,44,30.36,30.26,10,3,15,0.00
2013-5-3,64.6,49.6,39.6,51.7,44.1,36.8,96,83,53,30.26,30.10,8,0,12,0.02
2013-5-4,85.6,66.0,53.8,56.8,45.3,33.2,96,53,19,30.19,30.11,7,1,8,0.02
2013-5-5,82.6,61.3,44.8,48.8,42.8,35.6,90,56,19,30.19,30.11,8,1,9,0.00
2013-5-6,83.3,60.2,47.1,50.2,41.4,32.7,83,54,19,30.19,30.12,6,0,9,0.00
2013-5-7,82.0,61.8,46.0,50.5,42.7,37.4,76,53,27,30.21,30.14,7,0,8,0.00
2013-5-8,92.5,67.3,51.4,54.7,45.5,39.2,77,50,19,30.20,30.13,5,0,8,0.00
2013-5-9,81.0,63.3,52.0,58.2,51.0,43.8,94,68,33,30.14,29.99,10,0,12,0.34
2013-5-10,60.9,48.0,39.9,59.7,45.9,38.9,96,93,81,30.13,29.93,10,2,14,0.08
2013-5-11,67.8,48.8,35.2,52.2,40.2,29.0,96,75,38,30.19,30.00,15,1,16,0.00
2013-5-12,65.7,45.6,34.8,31.0,26.6,19.7,73,50,21,30.27,30.19,13,1,13,0.00
2013-5-13,75.9,52.2,30.4,35.5,27.4,16.4,84,45,19,30.34,30.21,8,0,10,0.00
2013-5-14,97.7,72.1,50.4,56.1,43.7,28.9,54,38,19,30.21,29.86,12,3,17,0.00
2013-5-15,95.2,74.7,57.2,56.7,49.9,42.7,71,45,19,30.00,29.84,9,2,12,0.02
2013-5-16,96.8,70.3,52.7,53.2,45.0,34.1,88,47,19,30.14,29.99,5,0,6,0.00
2013-5-17,93.2,69.0,56.8,62.8,52.3,41.0,88,58,27,30.21,30.12,7,0,12,0.00
2013-5-18,89.4,70.9,58.1,61.5,55.9,47.2,96,62,33,30.24,30.13,7,0,8,0.16
2013-5-19,95.1,76.9,59.9,64.1,59.3,56.6,91,59,29,30.15,29.97,7,0,9,0.00
2013-5-20,93.0,80.5,69.3,66.5,60.3,51.4,88,54,25,30.01,29.92,15,3,18,0.00
2013-5-21,87.4,72.5,63.0,63.8,61.4,56.1,96,70,41,29.99,29.87,15,3,16,0.86
2013-5-22,79.9,70.0,60.6,66.2,59.2,49.6,91,70,41,29.93,29.83,12,2,14,0.10
2013-5-23,61.0,49.4,38.7,54.9,45.2,33.5,96,86,62,30.41,29.93,20,2,20,0.10
2013-5-24,70.3,49.0,36.3,42.3,34.5,27.6,92,62,24,30.57,30.40,7,0,9,0.00
2013-5-25,68.9,49.2,34.2,46.3,39.2,28.6,92,70,41,30.56,30.43,0,0,0,0.00
2013-5-26,74.3,57.7,41.4,52.6,44.5,36.4,92,65,32,30.47,30.30,8,0,8,0.02
2013-5-27,69.0,58.7,54.0,61.4,55.6,51.9,96,90,65,30.31,30.03,5,0,7,0.52
2013-5-28,83.7,70.2,62.2,66.4,63.4,59.8,96,80,52,30.09,29.94,17,2,18,0.75
2013-5-29,91.6,75.2,63.0,68.5,62.7,57.9,96,68,36,30.15,30.01,12,2,13,0.12
2013-5-30,91.2,77.4,67.1,67.3,63.0,58.3,79,63,40,30.15,30.04,17,2,18,0.04
2013-5-31,81.0,71.4,64.9,66.3,63.2,57.0,96,76,57,30.12,29.94,9,1,13,0.16
2013-6-1,80.8,70.0,60.3,66.7,60.6,55.8,96,73,50,30.00,29.88,12,2,12,0.20
2013-6-2,65.7,56.2,39.6,61.3,48.8,35.6,96,78,47,30.22,29.92,6,0,8,0.00
2013-6-3,82.4,56.6,38.3,51.2,41.2,35.3,96,63,22,30.29,30.21,2,0,3,0.00
2013-6-4,87.3,62.4,43.2,48.6,43.6,38.2,90,56,19,30.33,30.25,1,0,2,0.00
2013-6-5,89.3,69.7,55.0,53.1,47.5,42.6,76,49,22,30.27,30.07,6,0,9,0.00
2013-6-6,79.7,63.5,52.7,58.1,47.6,40.8,81,58,36,30.09,30.02,7,0,8,0.02
2013-6-7,76.8,61.6,51.8,55.0,47.9,37.2,92,64,37,30.11,30.04,8,0,8,0.00
2013-6-8,86.0,65.4,48.6,55.3,47.4,39.3,88,56,27,30.18,30.08,3,0,6,0.00
2013-6-9,90.0,72.9,57.9,61.2,53.0,46.2,80,53,27,30.18,30.00,8,0,8,0.00
2013-6-10,86.7,70.1,61.3,66.9,62.0,58.2,96,78,44,30.05,29.92,5,0,6,0.37
2013-6-11,91.8,72.0,56.8,65.4,60.4,53.3,96,72,32,30.11,30.00,8,0,11,0.14
2013-6-12,98.8,76.5,64.9,72.8,67.6,63.8,96,77,40,30.09,29.79,26,1,31,1.53
2013-6-13,80.4,65.0,54.9,63.8,55.3,49.2,96,74,38,30.21,29.81,7,0,12,0.02
2013-6-14,85.8,66.2,53.2,58.8,53.6,50.2,96,68,33,30.28,30.18,2,0,6,0.00
2013-6-15,80.4,69.9,56.3,65.5,61.7,53.8,96,76,54,30.23,30.07,0,0,0,0.14
2013-6-16,91.6,75.2,65.7,67.4,63.4,60.6,89,69,37,30.11,30.04,5,0,6,0.10
2013-6-17,94.2,77.5,62.2,68.4,58.3,48.4,96,58,22,30.13,30.03,0,0,0,0.00
2013-6-18,77.2,65.2,55.1,60.8,55.3,50.0,96,72,44,30.22,30.07,0,0,0,0.00
2013-6-19,90.9,69.4,54.3,53.2,49.1,44.9,88,52,24,30.31,30.21,0,0,0,0.00
2013-6-20,98.6,76.5,58.6,63.0,56.5,46.1,78,52,28,30.34,30.25,0,0,0,0.00
2013-6-21,90.3,73.5,63.9,66.8,62.8,59.3,88,72,40,30.34,30.12,7,0,10,0.53
2013-6-22,89.9,76.3,67.3,71.1,65.9,61.5,88,71,51,30.27,30.15,0,0,0,0.00
2013-6-23,93.4,76.0,64.0,69.0,64.8,60.7,96,71,42,30.24,30.14,3,0,6,0.00
2013-6-24,91.7,73.5,66.4,70.3,65.0,59.9,93,77,44,30.27,30.09,9,0,13,0.31
2013-6-25,96.6,77.9,67.5,72.4,67.6,60.6,91,73,42,30.16,30.01,8,1,9,0.08
2013-6-26,87.6,73.6,64.8,72.9,66.9,63.6,96,81,53,30.09,29.91,8,1,14,0.57
2013-6-27,99.7,78.1,65.3,70.8,65.5,58.8,96,71,27,29.98,29.87,6,1,11,0.10
2013-6-28,89.2,72.7,64.0,71.5,62.4,55.9,96,74,35,29.89,29.78,7,0,8,1.16
2013-6-29,81.6,67.4,63.5,64.7,62.1,59.1,96,84,49,29.92,29.77,6,1,7,0.00
2013-6-30,84.4,69.8,63.4,62.2,58.5,53.7,92,69,43,30.13,29.92,6,1,9,0.00
2013-7-1,88.0,70.3,55.0,58.7,51.9,44.3,90,55,32,30.20,30.12,10,1,11,0.00
2013-7-2,66.9,62.6,60.6,60.2,56.0,49.2,93,79,54,30.22,30.18,5,0,6,0.10
2013-7-3,81.8,67.2,59.2,68.1,61.3,56.2,96,83,54,30.26,30.17,6,0,6,0.28
2013-7-4,87.6,71.4,56.3,65.4,59.3,55.2,96,70,40,30.31,30.24,6,1,6,0.00
2013-7-5,96.6,75.3,58.1,66.1,61.4,56.1,96,67,32,30.29,30.20,6,0,7,0.00
2013-7-6,86.9,74.4,66.5,69.2,65.8,63.5,96,76,48,30.26,30.17,3,0,6,0.00
2013-7-7,95.9,78.3,67.1,68.5,66.4,60.5,94,70,34,30.23,30.15,6,1,9,0.00
2013-7-8,92.1,76.4,68.9,76.0,68.1,66.2,92,77,45,30.29,30.14,7,2,9,0.98
2013-7-9,91.0,80.0,72.5,74.7,72.0,67.7,96,77,53,30.19,30.08,2,2,3,0.00
2013-7-10,92.9,75.5,58.6,74.7,65.3,54.5,96,73,40,30.19,30.04,2,1,3,0.18
2013-7-11,92.1,70.4,56.1,62.9,55.4,46.7,96,66,23,30.27,30.19,0,0,0,0.00
2013-7-12,96.8,72.2,54.3,65.6,57.2,52.0,96,66,24,30.32,30.25,0,0,0,0.00
2013-7-13,97.6,75.8,57.6,62.5,59.5,54.9,96,62,26,30.34,30.28,0,0,0,0.00
2013-7-14,73.4,73.4,73.4,62.2,62.2,62.2,68,68,68,30.39,30.32,0,0,0,0.00
2013-7-15,73.4,73.4,73.4,62.2,62.2,62.2,68,68,68,30.40,30.39,0,0,0,0.00
2013-7-26,74.8,67.9,65.8,63.4,60.6,55.3,88,78,51,30.14,30.06,10,1,10,0.00
2013-7-27,78.6,65.2,54.0,63.6,53.0,42.8,96,68,32,30.09,30.03,10,1,11,0.00
2013-7-28,82.6,59.7,49.5,54.4,46.7,41.7,90,66,25,30.20,30.06,8,1,11,0.04
2013-7-29,92.1,66.5,52.6,55.0,51.3,47.1,87,62,26,30.35,30.19,6,0,13,0.00
2013-7-30,77.0,66.6,54.9,60.5,57.0,52.1,96,73,50,30.37,30.25,5,0,6,0.00
2013-7-31,75.0,67.6,61.5,68.3,63.1,57.8,96,86,71,30.25,30.14,2,0,4,0.14
2013-8-1,96.0,71.0,56.1,65.9,56.1,45.5,96,67,19,30.16,30.11,6,0,6,0.00
2013-8-2,92.7,69.2,55.6,67.8,61.4,51.9,96,79,40,30.14,30.01,8,1,8,1.71
2013-8-3,90.5,72.6,56.1,70.1,58.8,46.8,96,68,23,30.28,30.12,7,0,7,0.00
2013-8-4,91.6,68.5,54.7,62.0,54.6,50.4,96,66,26,30.36,30.28,5,0,6,0.00
2013-8-5,81.0,66.5,55.6,67.2,56.8,51.7,91,72,49,30.31,30.09,6,1,8,0.00
2013-8-6,93.6,72.8,62.2,67.8,64.0,59.3,96,76,39,30.11,30.04,7,1,8,0.00
2013-8-7,95.4,77.3,65.8,75.1,69.0,63.1,96,78,43,30.12,30.01,7,1,8,0.14
2013-8-8,90.0,72.2,63.3,66.0,61.1,54.5,96,72,35,30.19,30.12,8,0,8,0.00
2013-8-9,97.5,74.0,58.3,64.4,58.6,53.7,96,63,24,30.21,30.15,3,0,6,0.00
2013-8-10,98.4,77.2,59.9,68.4,59.6,50.5,96,62,21,30.30,30.21,6,0,7,0.00
2013-8-11,97.4,73.6,55.8,60.8,56.0,50.9,90,60,24,30.31,30.21,3,0,5,0.00
2013-8-12,92.3,73.4,61.2,64.7,62.0,57.6,91,71,34,30.24,30.03,7,1,8,0.14
2013-8-13,81.3,67.7,59.9,65.9,57.4,47.7,96,73,33,30.27,30.09,6,0,7,0.00
2013-8-19,85.1,69.8,63.0,59.7,58.2,56.3,85,69,40,30.25,30.21,1,0,3,0.00
2013-8-20,96.4,75.8,60.8,68.0,61.5,57.5,96,66,29,30.33,30.23,5,0,7,0.00
2013-8-21,99.0,78.1,61.9,69.1,62.3,57.6,96,64,27,30.30,30.16,6,1,8,0.00
2013-8-22,76.5,70.8,63.9,69.5,65.1,61.4,92,83,67,30.31,30.18,6,1,9,0.02
2013-8-23,99.1,74.7,59.9,69.5,58.9,49.8,96,65,23,30.35,30.27,7,0,7,0.00
2013-8-24,99.9,73.9,58.1,58.6,54.0,48.7,82,56,19,30.45,30.35,6,0,6,0.00
2013-8-25,99.5,74.6,57.0,61.8,57.6,52.1,89,60,27,30.45,30.33,8,1,8,0.00
2013-8-26,97.5,77.9,64.2,69.2,63.9,58.3,88,65,36,30.36,30.21,8,1,8,0.00
2013-8-27,101.7,83.9,72.0,71.1,67.7,62.9,86,62,30,30.21,30.05,8,2,9,0.00
2013-8-28,86.9,76.8,70.5,69.8,65.9,61.4,92,70,54,30.23,30.04,10,1,12,0.00
2013-8-29,106.3,79.7,68.1,72.3,65.5,54.8,96,69,20,30.27,30.17,8,0,8,0.00
2013-8-30,104.7,79.5,65.5,70.8,66.3,62.5,96,70,30,30.17,29.96,10,1,11,0.02
2013-8-31,92.5,72.0,67.3,74.4,67.2,64.6,96,86,45,30.06,29.96,6,0,6,0.00
2013-9-1,94.8,76.0,67.5,72.9,67.0,62.3,96,77,38,30.00,29.94,6,0,7,0.00
2013-9-2,92.0,73.5,58.1,67.2,60.8,53.5,96,68,32,30.15,29.96,5,0,7,0.00
2013-9-3,93.4,67.3,55.2,58.9,54.8,50.6,96,70,26,30.26,30.15,3,0,5,0.00
2013-9-4,96.3,70.0,52.3,62.2,53.3,45.8,96,63,19,30.31,30.23,8,0,8,0.00
2013-9-5,96.5,70.1,55.8,62.1,53.7,44.6,92,62,22,30.40,30.28,5,0,7,0.00
2013-9-6,97.4,71.6,54.3,61.8,53.1,44.9,84,56,25,30.40,30.21,6,0,8,0.00
2013-9-7,98.8,73.6,59.9,67.1,60.8,54.6,96,69,24,30.22,30.08,9,1,9,0.00
2013-9-8,93.7,74.8,64.8,67.9,64.1,61.1,96,72,39,30.19,30.11,7,1,16,0.00
2013-9-9,106.0,81.5,63.9,70.8,66.0,61.2,96,64,30,30.17,30.04,8,1,9,0.00
2013-9-10,104.9,84.9,71.2,67.9,62.2,54.4,85,52,20,30.22,30.09,9,2,15,0.00
2013-9-11,104.6,80.2,70.0,68.0,65.0,55.7,86,64,22,30.24,30.15,15,2,15,0.00
2013-9-12,91.9,72.4,62.8,67.7,59.3,51.4,91,67,28,30.22,30.09,9,1,9,0.00
2013-9-13,78.4,61.0,44.1,51.6,44.9,37.9,85,58,25,30.32,30.22,7,1,12,0.00
2013-9-14,88.0,58.8,40.4,50.0,39.5,30.4,96,58,19,30.37,30.22,6,0,8,0.00
2013-9-15,69.4,58.1,46.8,57.0,49.1,37.8,96,73,50,30.30,30.15,3,0,5,0.02
2013-9-16,81.3,61.4,50.7,57.3,50.2,42.9,96,73,27,30.50,30.30,5,0,6,0.00
2013-9-17,86.7,60.8,45.3,51.4,47.6,43.7,96,66,27,30.50,30.30,6,0,6,0.00
2013-9-18,92.3,67.7,56.5,65.5,55.1,47.3,96,67,33,30.29,30.11,7,0,7,0.02
2013-9-19,86.9,71.6,65.1,71.6,66.4,62.9,96,85,50,30.18,30.03,8,1,9,0.00
2013-9-20,79.2,70.1,58.6,68.7,61.7,49.4,96,76,57,30.05,29.96,7,3,10,0.00
2013-9-21,81.8,61.0,46.9,56.8,47.7,41.1,96,67,25,30.11,29.97,10,2,11,0.00
2013-9-22,83.4,59.3,46.9,53.5,45.1,39.7,92,66,24,30.23,30.10,6,0,7,0.00
2013-9-23,89.7,60.0,43.0,48.9,43.4,37.3,92,62,19,30.29,30.20,6,0,7,0.00
2013-9-24,91.0,61.6,45.3,52.1,45.5,40.1,96,63,19,30.25,30.10,5,0,6,0.00
2013-9-25,94.2,63.9,50.5,54.2,48.9,42.1,91,65,19,30.14,30.08,6,0,6,0.00
2013-9-26,98.8,66.0,50.2,58.0,50.4,43.9,96,66,19,30.26,30.13,3,0,6,0.00
2013-9-27,98.3,67.7,49.1,51.3,45.6,34.7,82,51,19,30.35,30.25,5,0,5,0.00
2013-9-28,93.2,69.4,51.6,57.5,51.8,47.6,91,59,24,30.28,30.11,13,1,13,0.00
2013-9-29,82.0,62.5,46.8,60.9,51.1,43.9,96,69,34,30.21,30.11,6,1,9,0.22
2013-9-30,89.4,61.4,44.6,58.3,47.9,42.0,96,68,21,30.18,30.07,6,1,8,0.00
2013-10-1,89.3,69.0,55.8,64.1,59.5,52.0,96,75,37,30.18,30.09,9,2,13,0.00
2013-10-2,99.9,72.3,60.3,66.4,58.8,51.6,96,69,22,30.27,30.15,3,0,16,0.00
2013-10-3,90.5,69.0,61.2,72.0,64.7,57.9,96,87,44,30.17,30.04,8,1,9,0.88
2013-10-4,98.1,73.6,62.2,69.0,64.9,61.1,96,78,34,30.19,30.11,6,1,7,0.00
2013-10-5,93.3,71.5,66.0,71.1,66.2,62.6,96,85,43,30.16,29.97,6,0,8,0.37
2013-10-6,75.6,57.6,42.3,65.9,49.2,36.8,96,77,31,29.99,29.88,8,1,9,0.29
2013-10-7,80.2,54.0,43.0,47.7,42.6,38.5,96,70,24,30.27,29.95,8,0,8,0.00
2013-10-8,96.4,60.2,42.2,52.8,44.4,39.4,96,64,19,30.37,30.27,5,0,6,0.00
2013-10-9,69.8,50.6,43.0,51.4,44.1,39.8,92,80,48,30.43,30.35,0,0,2,0.00
2013-11-1,53.1,47.5,44.1,45.0,41.2,37.4,96,80,57,29.92,29.62,13,3,15,0.14
2013-11-2,52.2,43.1,37.7,46.3,38.8,35.3,96,85,66,30.28,29.92,6,0,7,0.18
2013-11-3,63.6,43.3,32.4,48.3,36.1,30.6,96,78,37,30.47,30.28,5,0,6,0.02
2013-11-4,66.4,48.9,38.8,42.3,37.6,33.8,85,67,36,30.48,30.32,12,2,14,0.00
2013-11-5,57.2,53.2,50.4,50.4,44.4,41.9,90,72,65,30.45,30.18,14,2,17,0.00
2013-11-6,56.4,49.1,35.2,54.9,45.0,31.8,96,86,62,30.31,30.00,13,4,17,0.67
2013-11-7,56.7,36.8,27.9,31.4,26.2,21.8,86,67,30,30.42,30.31,10,2,13,0.00
2013-11-8,56.5,39.4,26.4,33.3,28.2,23.3,92,67,37,30.50,30.20,8,3,8,0.00
2013-11-9,69.0,52.0,42.1,38.1,34.0,28.7,65,52,29,30.22,30.07,17,7,20,0.00
2013-11-10,64.8,42.4,31.6,30.0,25.6,19.1,72,54,23,30.48,30.27,10,2,15,0.00
2013-11-11,48.4,38.3,29.3,37.7,30.2,21.1,92,74,57,30.58,30.26,9,3,10,0.18
2013-11-12,42.8,27.7,18.0,26.2,16.0,-5.0,81,64,19,30.79,30.58,9,1,10,0.08
2013-11-13,46.2,28.3,15.4,19.3,13.2,2.3,77,56,19,30.74,30.38,13,5,18,0.00
2013-11-14,57.4,39.4,27.9,25.3,20.2,14.9,60,47,27,30.38,30.15,14,6,17,0.00
2013-11-15,52.2,42.0,34.2,34.8,28.2,22.3,76,59,40,30.19,30.14,10,3,13,0.00
2013-11-16,60.4,51.1,38.3,56.8,46.4,32.1,96,84,71,30.15,29.81,13,5,17,0.10
2013-11-17,68.2,57.2,41.7,61.3,50.6,33.5,96,79,55,29.92,29.43,22,8,24,0.22
2013-11-18,53.8,39.1,27.5,34.2,26.6,18.3,81,62,34,30.39,29.92,17,4,18,0.00
2013-11-19,63.5,36.7,23.4,31.0,23.3,16.0,78,61,25,30.52,30.39,6,1,8,0.00
2013-11-20,58.0,37.3,25.5,36.1,26.3,20.1,88,67,30,30.47,30.27,10,2,12,0.10
2013-11-21,52.0,45.8,39.4,45.5,41.7,36.1,96,86,69,30.35,30.28,12,1,12,0.32
2013-11-22,46.0,36.1,24.3,45.0,31.7,18.1,96,84,70,30.61,30.32,13,2,16,0.00
2013-11-23,26.0,21.3,16.7,20.7,7.6,-2.1,83,57,41,30.79,30.55,14,4,22,0.00
2013-11-24,41.5,19.2,9.1,2.3,-4.0,-17.4,51,38,19,30.86,30.56,8,2,9,0.00
2013-11-25,32.9,25.9,16.5,23.4,12.5,0.5,83,58,38,30.56,30.26,14,6,17,0.00
2013-11-26,36.3,28.4,20.5,26.1,19.8,7.3,83,70,54,30.27,30.15,15,2,16,0.00
2013-11-27,33.4,20.9,15.1,14.5,6.1,-8.9,70,54,19,30.42,30.23,12,3,15,0.00
2013-11-28,45.5,25.4,19.2,10.5,6.2,-1.6,64,46,19,30.62,30.35,13,3,13,0.00
2013-11-29,53.6,27.4,14.4,21.3,12.7,2.6,72,57,19,30.78,30.58,6,1,7,0.00
2013-11-30,60.3,37.7,24.1,29.6,22.7,15.9,74,57,28,30.58,30.23,12,3,15,0.00
2013-12-1,53.2,35.1,25.0,39.4,27.8,18.8,86,75,51,30.26,30.13,8,1,8,0.00
2013-12-2,47.5,35.6,27.3,32.9,28.2,23.7,93,76,44,30.13,29.93,10,1,10,0.06
2013-12-3,51.8,43.9,34.5,48.0,41.6,32.7,96,92,81,29.94,29.87,8,2,10,0.00
2013-12-4,57.9,51.3,44.6,56.8,49.6,41.8,96,94,80,29.93,29.73,10,3,13,0.04
2013-12-5,47.1,28.3,21.4,41.5,17.6,7.7,82,64,52,30.40,29.86,14,4,16,0.00
2013-12-6,23.2,18.9,11.7,10.2,5.2,-1.4,58,54,52,30.65,30.37,8,2,9,0.00
2013-12-7,37.0,13.2,5.7,4.9,-4.9,-19.3,60,47,19,30.82,30.64,9,1,9,0.00
2013-12-8,24.8,19.7,7.5,20.3,10.6,-3.5,84,68,55,30.71,30.09,8,1,12,0.00
2013-12-9,25.5,17.7,1.6,20.8,5.7,-15.0,84,60,42,30.41,30.11,13,5,15,0.00
2013-12-10,28.3,11.2,-5.3,4.8,-7.1,-18.2,58,44,19,30.46,30.22,17,5,19,0.00
2013-12-11,28.2,13.3,-3.1,11.1,-2.5,-18.8,71,50,19,30.71,30.44,9,1,12,0.00
2013-12-12,29.5,7.1,-10.9,3.7,-10.7,-25.3,63,45,19,30.71,30.38,14,3,14,0.00
2013-12-13,44.4,21.4,6.4,21.4,9.0,-3.2,83,61,19,30.39,30.26,8,1,8,0.00
2013-12-14,33.3,26.7,24.1,24.4,20.8,16.8,85,78,66,30.26,30.01,7,2,10,0.00
2013-12-15,25.1,13.5,6.4,17.9,1.2,-5.6,76,58,44,30.27,30.09,14,4,15,0.00
2013-12-16,29.7,16.3,6.4,12.0,4.2,-4.2,77,59,38,30.32,30.17,5,0,6,0.00
2013-12-17,36.9,22.9,15.3,23.9,14.1,9.0,79,69,54,30.24,30.12,12,3,13,0.00
2013-12-18,41.2,25.0,10.6,25.1,8.8,-4.3,68,52,19,30.35,30.03,12,5,16,0.00
2013-12-19,50.0,38.6,32.2,35.5,30.7,25.0,88,74,56,30.11,29.96,8,2,9,0.04
2013-12-20,41.7,37.3,34.2,40.1,35.4,32.5,94,93,88,29.96,29.87,6,0,7,0.20
2013-12-21,35.6,33.5,32.5,34.6,32.1,31.0,96,94,94,30.00,29.67,6,0,6,0.40
2013-12-22,35.8,31.6,25.5,34.0,28.9,19.0,96,90,76,30.26,29.70,8,1,9,0.06
2013-12-23,27.9,15.3,-2.7,19.0,3.8,-17.2,76,61,35,30.60,30.25,13,4,16,0.00
2013-12-24,28.2,8.2,-3.3,4.2,-7.8,-17.1,60,49,19,30.72,30.55,10,2,12,0.00
2013-12-25,26.2,22.6,16.2,21.2,12.7,3.8,81,66,51,30.55,30.26,8,4,10,0.31
2013-12-26,37.6,25.7,12.2,23.4,14.4,2.0,77,62,43,30.48,30.26,10,5,14,0.00
2013-12-27,53.8,36.3,22.5,29.1,24.8,15.4,80,64,37,30.46,30.28,13,4,13,0.00
2013-12-28,59.7,41.3,31.3,33.7,28.6,23.3,76,62,36,30.29,30.03,13,5,15,0.00
2013-12-29,37.0,29.8,16.0,28.3,21.8,5.9,82,72,64,30.30,29.94,13,3,14,0.00
2013-12-30,22.6,11.4,2.1,5.4,-2.1,-9.4,63,54,39,30.47,30.30,7,2,10,0.00
2013-12-31,15.1,9.1,-1.1,6.4,-2.8,-12.4,68,58,43,30.53,30.32,10,2,12,0.00
2014-1-1,19.2,15.9,12.0,8.3,6.5,2.8,71,66,59,30.43,30.29,9,2,10,0.00
2014-1-2,22.1,14.0,4.8,5.2,2.0,-7.5,67,59,36,30.52,30.23,6,0,8,0.00